Location: Lake Hudson State Recreational Area
(41.8372°N, 84.2445°W)
Time: 22:15:46
(UTC-04:00)

N. Korean satellite - Visible Passes

Search period start: 23 October 2017 00:00
Search period end: 02 November 2017 00:00
Orbit: 459 x 517 km, 97.2° (Epoch: 23 October)

Date Brightness Start Highest point End Pass type
(mag) Time Alt. Az. Time Alt. Az. Time Alt. Az.
23 Oct 9.7 20:37:11 10° SW 20:39:24 16° W 20:41:36 10° NW visible
24 Oct 8.5 20:12:48 10° SSW 20:15:55 30° W 20:19:01 10° NNW visible
25 Oct 6.9 19:49:03 10° S 19:52:30 64° W 19:55:57 10° NNW visible
26 Oct 6.5 19:25:44 10° SSE 19:29:09 58° ENE 19:32:34 10° N visible
27 Oct 7.4 19:02:52 10° SE 19:05:53 28° ENE 19:08:53 10° N visible
27 Oct 9.7 20:37:19 10° SW 20:39:28 15° W 20:41:37 10° NW visible
28 Oct 8.5 20:12:53 10° SSW 20:15:57 30° W 20:19:03 10° NNW visible
29 Oct 6.9 19:49:06 10° S 19:52:31 63° W 19:55:58 10° NNW visible
30 Oct 6.4 19:25:46 10° SSE 19:29:10 59° ENE 19:32:34 10° N visible
31 Oct 7.3 19:02:52 10° SE 19:05:52 28° ENE 19:08:52 10° N visible
31 Oct 9.7 20:37:21 10° SW 20:39:27 15° W 20:41:34 10° NW visible
01 Nov 8.5 20:12:52 10° SSW 20:15:56 29° W 20:18:59 10° NW visible
